This is the latest recevied weather packets stored in our database for station/object DM2KB-13. If no packets are shown the sender has not sent any weather packets the latest 1 day(s).
| Time | Temp. | Humidity | Pressure | Rain* | Wind** | Luminosity | Snow |
|---|---|---|---|---|---|---|---|
| 1777963485 | 12.22° C | 98% | 1009.1 hPa | 5.59 mm | 0.89 m/s, 13° | 14 W/m² | - |
| 1777963185 | 12.22° C | 97% | 1009.2 hPa | 4.83 mm | 0.89 m/s, 43° | 12 W/m² | - |
| 1777962884 | 12.22° C | 98% | 1009.1 hPa | 4.83 mm | 0.89 m/s, 17° | 12 W/m² | - |
| 1777962584 | 12.22° C | 98% | 1009.2 hPa | 4.57 mm | 0.89 m/s, 36° | 12 W/m² | - |
| 1777962284 | 12.22° C | 97% | 1009.1 hPa | 4.06 mm | 0.89 m/s, 27° | 14 W/m² | - |
| 1777961984 | 12.78° C | 98% | 1009.1 hPa | 3.56 mm | 0.45 m/s, 3° | 11 W/m² | - |
| 1777961683 | 12.78° C | 98% | 1009.1 hPa | 2.54 mm | 0.45 m/s, 37° | 11 W/m² | - |
| 1777961383 | 12.78° C | 98% | 1009.1 hPa | 1.78 mm | 0.45 m/s, 58° | 14 W/m² | - |
| 1777961083 | 12.78° C | 98% | 1009.1 hPa | 1.52 mm | 0.89 m/s, 27° | 16 W/m² | - |
| 1777960782 | 13.33° C | 98% | 1009.1 hPa | 1.27 mm | 0.45 m/s, 54° | 18 W/m² | - |
| 1777960482 | 13.33° C | 98% | 1009.1 hPa | 1.52 mm | 0.45 m/s, 59° | 14 W/m² | - |
| 1777960182 | 13.33° C | 98% | 1009 hPa | 1.27 mm | 0.45 m/s, 28° | 11 W/m² | - |
| 1777959882 | 13.33° C | 98% | 1009 hPa | 0.76 mm | 0.45 m/s, 14° | 12 W/m² | - |
| 1777959581 | 13.33° C | 98% | 1009 hPa | 0.76 mm | 0.45 m/s, 14° | 12 W/m² | - |
| 1777959281 | 13.33° C | 98% | 1009.1 hPa | 0.51 mm | 0 m/s | 16 W/m² | - |
| 1777958981 | 13.33° C | 98% | 1009 hPa | 0.51 mm | 0 m/s | 18 W/m² | - |
| 1777958680 | 13.33° C | 98% | 1009 hPa | 0.51 mm | 0.45 m/s, 14° | 12 W/m² | - |
| 1777958380 | 13.33° C | 98% | 1009 hPa | 0.51 mm | 0 m/s | 11 W/m² | - |
| 1777958080 | 13.33° C | 98% | 1009 hPa | 0.76 mm | 0 m/s | 9 W/m² | - |
| 1777957780 | 13.33° C | 98% | 1008.9 hPa | 0.76 mm | 0.45 m/s, 14° | 11 W/m² | - |
| 1777957479 | 13.33° C | 98% | 1009 hPa | 0.76 mm | 0.45 m/s, 14° | 9 W/m² | - |
| 1777957179 | 13.33° C | 98% | 1008.9 hPa | 0.51 mm | 0 m/s | 9 W/m² | - |
| 1777956879 | 13.33° C | 97% | 1008.9 hPa | 0.51 mm | 0 m/s | 7 W/m² | - |
| 1777956579 | 13.33° C | 97% | 1008.9 hPa | 0.51 mm | 0 m/s | 7 W/m² | - |
| 1777956278 | 13.33° C | 98% | 1009 hPa | 0.51 mm | 0 m/s | 5 W/m² | - |
* Rain latest hour (hover to see other rain measurements)
** Current wind speed in m/s (hover to see current wind gust speed)